This is the latest recevied weather packets stored in our database for station/object OM5AST-13. If no packets are shown the sender has not sent any weather packets the latest 10 day(s).
| Time | Temp. | Humidity | Pressure | Rain* | Wind** | Luminosity | Snow |
|---|---|---|---|---|---|---|---|
| 1787828635 | 27.78° C | 47% | - | 0 mm | - | 0 W/m² | - |
| 1787827436 | 26.67° C | 48% | - | 0 mm | - | 0 W/m² | - |
| 1787826235 | 26.67° C | 49% | - | 0 mm | - | 0 W/m² | - |
| 1787825035 | 26.11° C | 50% | - | 0 mm | - | 0 W/m² | - |
| 1787823835 | 25.56° C | 52% | - | 0 mm | - | 0 W/m² | - |
| 1787822635 | 25.56° C | 52% | - | 0 mm | - | 0 W/m² | - |
| 1787821436 | 25° C | 53% | - | 0 mm | - | 0 W/m² | - |
| 1787820235 | 24.44° C | 54% | - | 0 mm | - | 0 W/m² | - |
| 1787819035 | 23.89° C | 57% | - | 0 mm | - | 0 W/m² | - |
| 1787817835 | 22.78° C | 59% | - | 0 mm | - | 0 W/m² | - |
| 1787816635 | 22.78° C | 60% | - | 0 mm | - | 0 W/m² | - |
| 1787815435 | 22.22° C | 61% | - | 0 mm | - | 0 W/m² | - |
| 1787814235 | 21.67° C | 62% | - | 0 mm | - | 0 W/m² | - |
| 1787813035 | 21.67° C | 63% | - | 0 mm | - | 0 W/m² | - |
| 1787811835 | 21.67° C | 63% | - | 0 mm | - | 0 W/m² | - |
| 1787810635 | 21.11° C | 64% | - | 0 mm | - | 0 W/m² | - |
| 1787809435 | 21.11° C | 63% | - | 0 mm | - | 0 W/m² | - |
| 1787808235 | 20.56° C | 65% | - | 0 mm | - | 0 W/m² | - |
| 1787807035 | 20.56° C | 65% | - | 0 mm | - | 0 W/m² | - |
| 1787805836 | 20.56° C | 65% | - | 0 mm | - | 0 W/m² | - |
| 1787804635 | 20.56° C | 66% | - | 0 mm | - | 0 W/m² | - |
| 1787803435 | 20.56° C | 65% | - | 0 mm | - | 0 W/m² | - |
| 1787802235 | 20.56° C | 64% | - | 0 mm | - | 0 W/m² | - |
| 1787801035 | 20.56° C | 64% | - | 0 mm | - | 0 W/m² | - |
| 1787799835 | 21.11° C | 61% | - | 0 mm | - | 0 W/m² | - |
* Rain latest hour (hover to see other rain measurements)
** Current wind speed in m/s (hover to see current wind gust speed)